TimeCST,TemperatureF,Dew PointF,Humidity,Sea Level PressureIn,VisibilityMPH,Wind Direction,Wind SpeedMPH,Gust SpeedMPH,PrecipitationIn,Events,Conditions,WindDirDegrees,DateUTC
12:15 AM,58.5,55.9,91,30.02,7.0,Calm,Calm,-,N/A,,Clear,0,2013-11-16 06:15:00
12:35 AM,58.3,55.9,92,30.01,7.0,Calm,Calm,-,N/A,,Clear,0,2013-11-16 06:35:00
12:55 AM,58.8,56.5,92,30.01,7.0,Calm,Calm,-,N/A,,Mostly Cloudy,0,2013-11-16 06:55:00
1:15 AM,59.4,57.2,93,30.02,5.0,Calm,Calm,-,N/A,,Overcast,0,2013-11-16 07:15:00
1:35 AM,59.5,57.4,93,30.01,1.8,Calm,Calm,-,N/A,,Overcast,0,2013-11-16 07:35:00
1:55 AM,59.9,57.7,93,30.02,1.0,Calm,Calm,-,N/A,,Overcast,0,2013-11-16 07:55:00
2:15 AM,60.1,58.1,93,30.01,0.8,Calm,Calm,-,N/A,,Overcast,0,2013-11-16 08:15:00
2:35 AM,60.4,58.3,93,30.01,0.8,Calm,Calm,-,N/A,,Overcast,0,2013-11-16 08:35:00
2:55 AM,60.8,58.6,93,30.01,1.0,Calm,Calm,-,N/A,,Overcast,0,2013-11-16 08:55:00
3:15 AM,61.0,59.0,93,30.00,1.0,Calm,Calm,-,N/A,,Overcast,0,2013-11-16 09:15:00
3:35 AM,61.3,59.2,93,30.00,1.0,Calm,Calm,-,N/A,,Overcast,0,2013-11-16 09:35:00
3:55 AM,61.2,59.0,93,30.00,0.8,Calm,Calm,-,N/A,,Overcast,0,2013-11-16 09:55:00
4:15 AM,61.3,59.2,93,30.00,1.0,Calm,Calm,-,N/A,,Overcast,0,2013-11-16 10:15:00
4:35 AM,61.3,59.2,93,30.00,1.0,Calm,Calm,-,N/A,,Overcast,0,2013-11-16 10:35:00
4:55 AM,61.3,59.2,93,29.99,0.5,Calm,Calm,-,N/A,Fog,Fog,0,2013-11-16 10:55:00
5:15 AM,61.3,59.2,93,29.99,0.8,Calm,Calm,-,N/A,,Overcast,0,2013-11-16 11:15:00
5:35 AM,61.2,59.0,93,29.99,0.5,Calm,Calm,-,N/A,Fog,Fog,0,2013-11-16 11:35:00
5:55 AM,61.0,59.0,93,29.99,0.8,Calm,Calm,-,N/A,,Overcast,0,2013-11-16 11:55:00
6:15 AM,61.2,59.0,93,30.00,0.8,Calm,Calm,-,N/A,,Overcast,0,2013-11-16 12:15:00
6:35 AM,61.2,59.0,93,30.00,1.0,Calm,Calm,-,N/A,,Overcast,0,2013-11-16 12:35:00
6:55 AM,61.2,59.2,93,30.01,0.8,Calm,Calm,-,N/A,,Overcast,0,2013-11-16 12:55:00
7:15 AM,61.2,59.2,93,30.01,0.8,Calm,Calm,-,N/A,,Overcast,0,2013-11-16 13:15:00
7:35 AM,61.5,59.4,93,30.00,0.5,Calm,Calm,-,N/A,Fog,Fog,0,2013-11-16 13:35:00
7:55 AM,62.1,59.9,93,30.01,0.8,Calm,Calm,-,N/A,,Overcast,0,2013-11-16 13:55:00
8:15 AM,62.6,60.3,92,30.01,0.5,Calm,Calm,-,N/A,Fog,Fog,0,2013-11-16 14:15:00
8:35 AM,62.8,60.8,93,30.01,0.5,Calm,Calm,-,N/A,Fog,Fog,0,2013-11-16 14:35:00
8:55 AM,63.5,61.3,93,30.01,0.5,Calm,Calm,-,N/A,Fog,Fog,0,2013-11-16 14:55:00
9:15 AM,63.9,61.9,93,30.01,0.5,Calm,Calm,-,N/A,Fog,Fog,0,2013-11-16 15:15:00
9:35 AM,64.8,62.6,93,30.02,0.8,Calm,Calm,-,N/A,,Overcast,0,2013-11-16 15:35:00
9:55 AM,66.0,63.9,93,30.01,2.5,Calm,Calm,-,N/A,,Overcast,0,2013-11-16 15:55:00
10:15 AM,66.7,64.6,93,30.01,3.0,Calm,Calm,-,N/A,,Overcast,0,2013-11-16 16:15:00
10:35 AM,67.3,64.9,92,30.01,4.0,Calm,Calm,-,N/A,,Overcast,0,2013-11-16 16:35:00
10:55 AM,68.0,65.3,91,30.01,5.0,Calm,Calm,-,N/A,,Overcast,0,2013-11-16 16:55:00
11:15 AM,68.0,65.3,91,30.00,5.0,Calm,Calm,-,N/A,,Overcast,0,2013-11-16 17:15:00
11:35 AM,68.7,65.7,90,29.98,5.0,Calm,Calm,-,N/A,,Overcast,0,2013-11-16 17:35:00
11:55 AM,69.8,66.2,88,29.97,5.0,Calm,Calm,-,N/A,,Overcast,0,2013-11-16 17:55:00
12:15 PM,70.2,66.2,87,29.95,7.0,Calm,Calm,-,N/A,,Overcast,0,2013-11-16 18:15:00
12:35 PM,70.2,66.2,87,29.94,10.0,Calm,Calm,-,N/A,,Overcast,0,2013-11-16 18:35:00
12:55 PM,70.5,66.4,87,29.93,7.0,South,5.8,-,N/A,,Overcast,170,2013-11-16 18:55:00
1:15 PM,70.9,66.4,86,29.92,7.0,South,3.5,-,N/A,,Overcast,170,2013-11-16 19:15:00
1:35 PM,70.9,66.4,86,29.93,7.0,South,3.5,-,N/A,,Overcast,190,2013-11-16 19:35:00
1:55 PM,71.6,66.6,84,29.92,7.0,Calm,Calm,-,N/A,,Overcast,0,2013-11-16 19:55:00
2:15 PM,71.8,66.7,84,29.91,7.0,Calm,Calm,-,N/A,,Overcast,0,2013-11-16 20:15:00
2:35 PM,72.7,67.1,83,29.90,7.0,Calm,Calm,-,N/A,,Overcast,0,2013-11-16 20:35:00
2:55 PM,73.6,67.1,80,29.88,10.0,Calm,Calm,-,N/A,,Overcast,0,2013-11-16 20:55:00
3:15 PM,74.1,67.5,80,29.89,10.0,Calm,Calm,-,N/A,,Overcast,0,2013-11-16 21:15:00
3:35 PM,74.5,67.8,80,29.89,10.0,Calm,Calm,-,N/A,,Overcast,0,2013-11-16 21:35:00
3:55 PM,73.9,67.8,81,29.89,10.0,Calm,Calm,-,N/A,,Overcast,0,2013-11-16 21:55:00
4:15 PM,73.8,68.0,82,29.88,10.0,Calm,Calm,-,N/A,,Overcast,0,2013-11-16 22:15:00
4:35 PM,73.6,68.0,83,29.88,10.0,Calm,Calm,-,N/A,,Mostly Cloudy,0,2013-11-16 22:35:00
4:55 PM,73.8,67.5,81,29.87,10.0,Calm,Calm,-,N/A,,Mostly Cloudy,0,2013-11-16 22:55:00
5:15 PM,73.4,66.7,80,29.88,10.0,Calm,Calm,-,N/A,,Overcast,0,2013-11-16 23:15:00
5:35 PM,73.6,66.2,78,29.88,10.0,Calm,Calm,-,N/A,,Scattered Clouds,0,2013-11-16 23:35:00
5:55 PM,73.2,66.0,78,29.87,10.0,Calm,Calm,-,N/A,,Clear,0,2013-11-16 23:55:00
6:15 PM,73.4,65.7,77,29.88,10.0,Calm,Calm,-,N/A,,Clear,0,2013-11-17 00:15:00
6:35 PM,72.9,65.5,78,29.89,10.0,Calm,Calm,-,N/A,,Scattered Clouds,0,2013-11-17 00:35:00
6:55 PM,72.5,65.5,79,29.89,10.0,Calm,Calm,-,N/A,,Scattered Clouds,0,2013-11-17 00:55:00
7:15 PM,72.7,65.5,78,29.88,10.0,Calm,Calm,-,N/A,,Clear,0,2013-11-17 01:15:00
7:35 PM,73.0,65.5,77,29.89,10.0,Calm,Calm,-,N/A,,Clear,0,2013-11-17 01:35:00
7:55 PM,73.2,65.7,77,29.89,10.0,Calm,Calm,-,N/A,,Scattered Clouds,0,2013-11-17 01:55:00
8:15 PM,73.4,65.8,77,29.89,10.0,SSE,3.5,-,N/A,,Scattered Clouds,150,2013-11-17 02:15:00
8:35 PM,73.4,65.8,77,29.89,10.0,SSE,4.6,-,N/A,,Scattered Clouds,160,2013-11-17 02:35:00
8:55 PM,73.4,66.2,78,29.90,10.0,Calm,Calm,-,N/A,,Scattered Clouds,0,2013-11-17 02:55:00
9:15 PM,73.4,66.4,79,29.90,10.0,SSE,5.8,-,N/A,,Overcast,160,2013-11-17 03:15:00
9:35 PM,73.4,66.6,79,29.90,10.0,South,8.1,-,N/A,,Overcast,170,2013-11-17 03:35:00
9:55 PM,73.4,66.7,80,29.91,10.0,South,10.4,-,N/A,,Overcast,170,2013-11-17 03:55:00
10:15 PM,73.4,67.1,81,29.91,10.0,South,9.2,16.1,N/A,,Overcast,170,2013-11-17 04:15:00
10:35 PM,73.0,67.3,82,29.91,10.0,South,9.2,16.1,N/A,,Overcast,170,2013-11-17 04:35:00
10:55 PM,73.0,67.5,83,29.91,10.0,SSE,6.9,17.3,N/A,,Overcast,160,2013-11-17 04:55:00
11:15 PM,73.4,67.3,81,29.90,10.0,South,10.4,17.3,N/A,,Overcast,170,2013-11-17 05:15:00
11:35 PM,73.4,67.1,81,29.89,10.0,SSE,11.5,18.4,N/A,,Overcast,160,2013-11-17 05:35:00
11:55 PM,73.0,67.1,82,29.90,10.0,South,11.5,18.4,N/A,,Overcast,170,2013-11-17 05:55:00